Wind_Speed
61 65 64 54 53 51 56 57 57 55 63 73 76 71 73 67 66 63 65 67 74 79 82 76 77 81 81 77 74 73 78 84 85 87 88 88 89 91 92 92 91 89 86 84
67 69 72 66 66 58 65 65 62 68 71 75 80 76 77 75 68 68 71 74 79 83 80 76 71 71 80 77 71 84 93 94 95 94 95 97 99 99 99 99 98 92 89 83
66 68 70 69 68 72 73 78 72 73 75 74 77 77 78 75 76 78 79 81 80 82 82 73 77 78 67 68 91 103 101 100 100 101 103 104 106 106 106 104 100 94 87 79
66 67 67 65 68 73 74 73 74 74 81 82 81 83 85 85 83 78 76 76 77 81 81 77 81 83 85 94 103 105 105 104 106 108 110 111 113 112 108 103 93 88 82 74
66 66 66 67 71 74 74 72 72 72 74 78 82 83 81 80 80 80 78 80 83 85 87 89 92 94 99 103 106 107 109 111 112 114 115 114 112 106 96 88 82 76 78 73
62 68 69 73 73 68 67 70 70 69 70 78 81 82 79 79 80 83 82 82 84 84 88 91 96 101 104 106 108 108 109 112 113 114 111 101 93 87 82 77 76 72 73 68
78 72 74 73 68 71 74 74 71 69 71 73 80 82 82 85 88 86 87 90 93 95 98 101 100 102 102 102 103 105 108 112 112 103 94 86 81 78 75 71 69 66 60 52
79 80 83 80 76 77 76 75 72 73 76 78 81 85 88 92 92 93 94 95 94 92 94 97 98 97 96 99 103 108 113 108 97 88 80 78 75 71 67 61 58 55 51 45
80 82 82 81 83 82 81 82 82 85 85 86 86 87 89 92 93 93 92 94 95 94 96 94 94 96 99 103 108 110 102 94 86 81 77 73 67 61 54 50 48 45 43 41
76 80 78 77 79 78 78 79 81 80 81 82 84 83 86 89 90 89 91 92 91 90 92 92 93 97 103 105 102 96 92 84 81 77 71 64 60 54 47 44 43 41 38 38
81 81 76 81 78 80 79 79 82 81 81 77 76 79 84 86 86 87 89 89 87 90 92 96 98 102 99 94 91 89 82 78 73 66 61 56 53 50 45 42 41 40 40 39
72 75 81 77 72 69 71 73 74 77 75 75 78 81 82 84 83 82 83 89 91 92 94 96 97 93 89 85 84 81 74 67 57 52 50 46 45 42 43 40 40 42 42 42
62 60 60 61 60 65 73 74 70 73 74 76 78 78 77 81 86 86 88 88 93 93 93 88 86 84 84 81 73 68 65 57 50 45 41 41 41 39 39 40 44 44 44 45
66 58 54 56 62 63 70 76 74 72 72 75 85 88 88 92 91 87 86 88 87 85 85 87 86 79 65 56 56 61 60 52 47 44 41 41 41 41 43 44 45 45 45 46
72 72 67 67 67 71 72 70 71 72 75 78 83 85 85 82 83 84 87 90 86 83 85 84 69 58 52 49 52 51 48 48 46 44 44 44 44 45 47 49 50 50 51 51
67 70 73 76 78 78 81 79 80 79 73 74 77 77 78 79 83 86 83 83 82 65 65 60 55 52 49 50 49 46 43 40 41 40 42 43 45 45 45 44 47 47 49 51
54 58 61 64 69 72 74 73 73 73 75 72 72 74 78 65 62 71 64 68 65 58 66 57 55 52 49 51 49 48 49 48 44 48 49 47 47 47 51 53 55 57 58 59
57 61 62 68 68 68 71 73 73 71 69 59 61 71 72 77 78 68 77 71 65 73 76 64 55 54 52 53 54 51 49 49 49 50 49 52 58 64 65 62 60 57 57 58
44 45 49 50 51 52 51 53 56 60 63 61 59 72 70 72 67 65 70 77 81 84 82 63 54 55 56 56 56 54 53 53 52 54 59 61 58 57 58 58 51 47 41 38
39 41 44 44 46 47 49 53 57 61 64 65 68 74 75 76 79 81 86 88 87 80 60 53 53 53 56 58 57 57 53 52 52 56 58 59 58 57 54 45 41 29 20 19
40 41 43 47 47 50 55 57 59 61 61 60 60 61 61 63 67 72 75 72 60 54 50 49 49 52 51 50 49 48 50 50 52 55 55 56 55 47 36 26 20 16 15 14
38 39 44 46 48 49 51 53 50 45 42 42 41 43 45 44 44 47 49 48 45 44 43 44 46 49 47 47 46 46 47 49 50 53 53 54 41 28 22 19 14 16 17 13
40 41 40 39 42 47 51 46 39 34 31 31 31 29 31 33 34 35 35 36 37 36 36 38 39 41 42 41 41 43 46 50 50 52 49 34 25 20 20 16 15 14 15 17
36 36 36 41 45 50 45 35 26 24 25 22 23 24 24 25 26 28 30 31 31 33 32 34 34 36 40 42 44 47 47 50 50 43 30 23 20 22 22 23 25 26 27 27
38 36 37 41 45 47 34 28 25 25 27 26 27 27 30 30 31 32 34 34 35 35 35 37 38 41 44 45 47 48 48 43 37 30 25 25 28 30 30 30 31 31 31 31
41 35 38 39 44 41 31 28 28 29 30 30 31 32 34 37 37 38 38 38 39 39 41 43 45 46 46 45 41 38 35 29 27 26 28 29 31 29 31 34 31 30 28 25
29 33 38 41 40 41 30 27 28 31 32 34 36 37 40 42 43 43 42 40 40 39 38 36 33 31 30 30 29 26 24 24 25 26 25 23 22 25 31 36 38 35 31 26
Wind_Direction
218 219 220 228 230 237 232 243 248 248 246 253 259 259 265 269 273 267 273 277 278 278 280 286 292 292 292 288 290 293 296 299 300 301 301 301 301 302 303 303 304 303 303 302
222 223 229 228 233 235 246 251 248 250 246 252 259 264 264 267 271 273 273 277 282 284 284 286 290 292 284 280 284 290 296 300 300 300 301 301 301 301 302 301 300 299 298 298
227 229 233 235 238 242 247 248 248 250 254 254 258 263 265 268 270 274 282 282 283 281 283 285 286 284 285 278 284 294 297 298 300 300 299 300 300 299 298 298 298 296 294 294
232 238 240 242 241 243 244 247 249 247 251 255 260 265 267 266 271 276 274 274 276 277 282 285 282 279 276 282 288 292 294 296 298 298 298 298 298 296 296 295 292 292 292 292
235 238 236 241 243 243 246 247 252 252 254 255 257 261 266 271 273 274 275 276 277 279 281 281 283 286 287 288 290 292 294 296 296 296 297 296 296 295 292 292 292 290 289 289
237 238 239 243 244 247 252 252 254 258 261 264 265 266 267 268 269 271 273 276 279 282 285 288 290 290 291 292 294 295 295 295 296 296 296 295 293 291 290 291 290 290 285 284
239 240 241 242 247 251 253 256 260 263 264 263 264 266 268 270 271 274 277 279 281 284 286 287 289 291 292 292 293 294 297 299 299 298 295 293 291 291 291 291 291 288 282 275
237 242 248 251 251 256 259 257 257 259 259 259 262 269 274 277 280 281 283 285 287 288 288 289 290 291 292 293 296 298 299 300 299 296 294 293 293 293 292 289 286 282 276 267
245 246 248 250 253 255 258 264 265 266 266 268 270 272 275 278 280 282 284 284 287 287 288 290 290 292 294 296 297 299 299 300 298 295 293 293 292 292 287 284 284 281 272 264
251 252 254 256 258 260 262 265 267 268 271 272 272 274 276 276 278 280 281 282 284 285 287 289 290 292 294 296 297 297 298 298 297 295 293 291 290 293 287 286 285 280 272 264
255 258 259 261 264 265 266 269 271 270 267 268 270 272 274 276 278 279 280 282 284 286 288 290 292 293 294 295 295 297 299 298 296 293 292 288 289 289 283 281 279 274 269 264
254 255 255 258 264 267 264 262 265 268 272 273 272 271 272 274 277 280 283 286 288 290 290 290 292 293 293 292 292 294 297 298 295 292 291 289 286 279 277 274 272 267 263 262
257 258 258 257 261 262 263 263 263 267 272 274 273 273 274 277 283 286 287 286 287 288 290 290 291 292 291 290 289 289 295 294 291 290 292 289 284 280 277 272 266 264 262 262
255 256 257 257 259 260 262 264 265 268 269 270 275 279 280 283 286 285 282 286 290 289 290 290 291 291 288 283 283 289 294 293 289 289 288 283 281 279 276 273 272 272 270 265
257 259 260 257 258 259 260 265 267 269 272 276 278 282 281 281 281 284 288 289 287 288 290 290 289 285 282 281 285 292 296 294 290 289 289 286 282 278 276 276 276 276 275 272
256 257 258 260 261 262 267 268 268 269 268 269 273 276 278 282 286 286 286 287 287 290 297 290 286 284 281 284 283 287 292 297 297 296 292 289 286 285 283 281 279 276 275 272
262 262 262 264 263 264 267 266 266 267 269 275 279 279 283 284 281 288 284 283 280 290 305 287 286 285 282 284 286 286 288 291 293 295 294 294 292 289 287 283 279 276 272 269
266 267 270 270 272 272 273 274 275 276 275 271 262 263 270 277 285 280 277 279 282 288 296 288 279 284 281 282 286 289 290 291 291 293 294 293 294 295 294 291 287 283 277 272
267 268 270 271 271 272 273 276 276 275 274 273 263 259 263 270 271 268 269 276 279 288 290 282 279 279 280 280 284 288 290 291 294 296 295 298 301 303 304 302 301 296 288 280
271 274 276 277 279 279 280 281 280 278 275 271 268 267 267 266 265 266 268 272 279 283 278 277 280 278 277 280 285 289 288 291 293 296 302 304 306 307 306 304 303 300 297 280
276 278 279 281 282 282 282 282 281 280 280 278 276 273 268 266 265 265 268 272 275 274 277 275 273 277 282 283 284 287 290 293 294 297 300 304 308 308 308 307 306 306 299 284
278 278 282 285 286 288 293 293 289 285 279 276 272 269 269 272 271 267 267 271 273 274 274 272 269 272 279 283 284 285 288 291 295 300 304 307 308 306 304 302 296 295 292 285
284 286 288 290 300 305 307 301 293 287 285 283 281 278 273 270 270 271 271 271 271 271 271 271 272 275 276 278 283 286 289 293 298 301 304 305 309 305 295 288 280 279 270 264
285 288 293 303 306 307 306 298 294 286 281 284 288 286 283 281 278 276 274 274 274 274 276 274 273 276 281 284 286 290 294 298 299 300 298 299 294 294 295 296 294 282 272 267
282 289 295 300 304 309 302 285 284 289 290 289 287 286 286 285 281 277 276 274 273 275 278 277 276 279 282 285 288 291 291 292 295 296 296 297 296 297 296 294 296 297 290 283
284 290 300 300 307 311 298 291 288 290 291 293 293 295 294 292 289 285 282 282 283 282 280 280 281 281 282 282 281 281 285 286 285 287 289 293 300 303 303 306 305 311 310 301
281 293 298 303 309 315 301 295 296 296 297 298 297 294 294 292 287 284 282 280 279 278 278 280 281 281 279 277 277 279 278 278 278 280 284 291 298 307 310 317 323 322 314 310
Height
10919 10919 10919 10926 10926 10928 10930 10938 10937 10942 10933 10921 10921 10940 10944 10954 10957 10960 10963 10962 10954 10945 10942 10940 10935 10930 10928 10926 10924 10919 10915 10912 10909 10905 10901 10898 10895 10890 10887 10883 10877 10872 10869 10864
10903 10905 10904 10916 10917 10918 10922 10924 10927 10925 10915 10917 10917 10931 10936 10934 10945 10947 10947 10944 10934 10925 10922 10922 10919 10912 10908 10907 10906 10903 10897 10891 10887 10883 10879 10875 10872 10867 10861 10857 10854 10851 10846 10842
10892 10891 10891 10901 10908 10908 10909 10907 10915 10912 10906 10912 10912 10914 10916 10924 10929 10933 10930 10921 10914 10906 10908 10910 10902 10896 10895 10889 10885 10881 10876 10871 10866 10861 10857 10852 10847 10842 10837 10833 10826 10820 10821 10818
10879 10876 10886 10893 10890 10888 10889 10894 10900 10902 10894 10901 10903 10906 10904 10913 10918 10914 10909 10903 10894 10890 10893 10892 10887 10886 10880 10876 10870 10863 10857 10852 10845 10840 10833 10827 10821 10815 10809 10804 10802 10797 10791 10794
10862 10865 10870 10868 10870 10872 10876 10886 10886 10890 10889 10885 10889 10892 10898 10896 10894 10892 10890 10885 10880 10878 10876 10869 10868 10864 10858 10853 10847 10841 10834 10828 10823 10816 10810 10801 10794 10786 10780 10778 10774 10774 10767 10766
10849 10852 10852 10847 10856 10863 10869 10870 10878 10887 10886 10875 10869 10873 10876 10878 10875 10872 10871 10867 10863 10861 10852 10847 10844 10839 10834 10827 10821 10815 10809 10803 10796 10788 10780 10773 10766 10760 10755 10753 10750 10748 10745 10741
10830 10834 10828 10834 10853 10853 10854 10860 10870 10874 10871 10868 10852 10848 10850 10847 10851 10857 10853 10847 10842 10842 10836 10829 10823 10818 10811 10804 10797 10790 10783 10775 10767 10758 10751 10746 10740 10737 10734 10730 10725 10721 10721 10722
10815 10816 10810 10823 10839 10837 10839 10845 10854 10853 10850 10848 10846 10837 10831 10825 10826 10824 10821 10817 10817 10816 10810 10804 10799 10793 10786 10779 10773 10766 10758 10749 10739 10730 10726 10722 10718 10714 10712 10708 10706 10703 10703 10705
10803 10803 10807 10816 10818 10824 10830 10824 10828 10831 10833 10832 10830 10825 10817 10810 10805 10805 10803 10796 10796 10793 10786 10782 10775 10769 10763 10757 10749 10743 10734 10725 10715 10708 10703 10700 10697 10695 10693 10689 10688 10688 10688 10689
10787 10784 10795 10802 10801 10803 10808 10810 10809 10814 10810 10810 10810 10808 10801 10792 10790 10789 10785 10781 10778 10774 10767 10762 10757 10751 10744 10737 10730 10721 10713 10706 10694 10686 10683 10681 10677 10676 10674 10673 10672 10672 10673 10675
10769 10771 10781 10775 10789 10790 10794 10791 10784 10784 10786 10793 10793 10787 10779 10773 10770 10768 10763 10759 10761 10753 10749 10741 10735 10729 10723 10715 10708 10700 10693 10685 10676 10668 10664 10662 10660 10659 10659 10658 10658 10659 10659 10660
10750 10757 10757 10761 10767 10773 10776 10773 10767 10762 10767 10765 10761 10759 10761 10755 10750 10748 10746 10737 10735 10729 10723 10719 10710 10707 10701 10695 10689 10683 10676 10668 10661 10654 10650 10647 10646 10645 10644 10644 10645 10646 10646 10646
10735 10742 10745 10747 10746 10743 10739 10746 10759 10756 10749 10741 10731 10734 10740 10738 10732 10728 10725 10718 10711 10711 10703 10696 10689 10683 10678 10674 10671 10665 10660 10653 10647 10642 10640 10636 10633 10633 10631 10630 10631 10631 10632 10633
10723 10726 10722 10723 10725 10725 10718 10726 10737 10738 10734 10725 10711 10713 10716 10714 10713 10707 10701 10698 10692 10689 10683 10675 10669 10662 10657 10654 10654 10650 10641 10638 10634 10630 10629 10625 10623 10620 10618 10617 10617 10617 10617 10617
10704 10707 10709 10708 10707 10703 10707 10714 10718 10715 10709 10707 10696 10692 10693 10692 10688 10683 10679 10673 10669 10667 10660 10653 10646 10644 10641 10641 10639 10636 10629 10621 10619 10617 10614 10611 10610 10609 10606 10605 10603 10602 10600 10600
10687 10689 10692 10690 10691 10689 10683 10698 10696 10698 10694 10688 10682 10675 10671 10673 10666 10661 10656 10649 10645 10646 10639 10633 10630 10628 10628 10625 10623 10622 10618 10614 10606 10605 10601 10598 10595 10593 10591 10590 10588 10585 10584 10582
10674 10673 10673 10673 10671 10672 10670 10673 10674 10673 10671 10671 10659 10654 10649 10648 10642 10639 10635 10633 10626 10627 10624 10619 10614 10613 10614 10609 10608 10606 10604 10600 10599 10593 10587 10584 10580 10578 10574 10572 10570 10566 10564 10562
10659 10657 10657 10650 10657 10656 10653 10651 10649 10649 10649 10655 10647 10631 10629 10625 10620 10617 10614 10615 10611 10609 10609 10606 10602 10599 10596 10595 10594 10594 10590 10585 10583 10579 10577 10571 10564 10557 10551 10544 10540 10538 10534 10531
10645 10643 10641 10641 10639 10638 10638 10633 10629 10626 10625 10627 10625 10617 10613 10608 10603 10598 10595 10596 10595 10594 10594 10587 10587 10585 10581 10577 10580 10581 10577 10571 10568 10564 10558 10554 10547 10540 10532 10523 10519 10512 10509 10507
10634 10631 10627 10629 10626 10624 10622 10618 10614 10608 10603 10603 10601 10597 10590 10589 10585 10584 10582 10581 10581 10581 10577 10572 10571 10569 10566 10564 10566 10565 10562 10559 10554 10548 10543 10537 10531 10524 10516 10509 10503 10501 10499 10498
10622 10620 10617 10614 10613 10611 10607 10603 10597 10590 10582 10576 10572 10568 10569 10568 10567 10566 10565 10565 10565 10563 10560 10559 10558 10553 10553 10554 10553 10550 10547 10545 10540 10536 10531 10525 10519 10511 10506 10502 10499 10497 10496 10496
10609 10608 10605 10602 10598 10594 10587 10580 10574 10569 10565 10561 10558 10555 10552 10550 10550 10549 10550 10550 10549 10548 10547 10545 10543 10542 10543 10542 10540 10537 10534 10531 10528 10523 10518 10512 10507 10503 10500 10498 10496 10495 10495 10494
10597 10594 10591 10590 10585 10579 10572 10563 10558 10554 10551 10547 10544 10542 10541 10540 10539 10539 10538 10536 10536 10536 10535 10534 10532 10530 10530 10530 10528 10526 10522 10519 10516 10511 10506 10502 10499 10497 10496 10495 10494 10493 10492 10491
10586 10584 10581 10578 10573 10567 10559 10554 10549 10547 10543 10540 10538 10536 10533 10532 10531 10529 10528 10528 10526 10525 10524 10523 10523 10521 10518 10517 10516 10513 10509 10506 10503 10499 10497 10495 10493 10492 10491 10489 10487 10485 10485 10483
10576 10575 10572 10568 10563 10557 10550 10546 10543 10540 10537 10535 10532 10529 10527 10524 10522 10520 10518 10517 10516 10515 10515 10513 10512 10510 10508 10507 10504 10502 10498 10495 10493 10490 10489 10488 10487 10485 10483 10481 10479 10477 10474 10473
10566 10564 10561 10558 10553 10547 10541 10538 10535 10532 10529 10526 10522 10518 10514 10510 10508 10507 10505 10504 10504 10504 10502 10500 10499 10498 10496 10494 10492 10489 10488 10487 10485 10484 10484 10482 10479 10477 10475 10472 10468 10465 10461 10459
10556 10555 10551 10548 10544 10538 10533 10529 10527 10523 10519 10516 10512 10507 10503 10499 10494 10491 10490 10491 10490 10489 10487 10485 10485 10484 10483 10482 10481 10480 10479 10479 10478 10477 10476 10474 10471 10468 10465 10462 10455 10454 10451 10448